sat.trackr.live / text

‹ back to catalog

INTELSAT 21 (IS-21)

NORAD 38749 · 2012-045A

PAYLOAD ACTIVE UNKNOWN

§ Identity

Operator
Country
ITSO
Launch date
2012-08-19
Launch site
SEAL
Launch vehicle
Mass (kg)
RCS (m²)
52.40

Purposes: comms

External: N2YO · Heavens-Above · Gunter

§ Orbital elements

Epoch: 2026-05-25T04:30:50.770368Z

Period
1,436.09 min
Inclination
0.0170°
Eccentricity
0.0001983
Mean motion
1.00271954 rev/d
Perigee alt
35,778.2 km
Apogee alt
35,794.9 km
Semi-major
42,164.7 km
B*
0.0000e+0
RAAN
336.2008°
Arg perigee
95.2727°
Mean anomaly
181.0165°
Rev number
5,029

§ Raw data

INTELSAT 21 (IS-21)1 38749U 12045A   26145.18808762 -.00000287  00000+0  00000+0 0  99972 38749   0.0170 336.2008 0001983  95.2727 181.0165  1.00271954 50293

JSON: /api/v1/satellites/38749 · /tle

For live sub-satellite position, see the globe view (requires WebGL).

§ Visibility from observer

Set your observer location to see the next 7 days of passes ≥ 10°. The values pass through the URL so the page stays shareable.

No JS? Fill the form by hand. The geolocation button needs JavaScript.